Location: Maccacari
(45.1333°N, 11.1333°E)
Time: 02:39:28
(UTC+00:00)

Altair - Pass Details

Date: 26 January 2021
Orbit: 1501 x 1682 km, 47.2° (Epoch: 01 March)

Event Time Altitude Azimuth Distance (km) Brightness Sun altitude
Rises 12:30:53 0° 285° (WNW) 4,926 10.2 24.7°
Reaches altitude 10° 12:37:32 10° 255° (WSW) 3,903 10.2 24.4°
Maximum altitude 12:39:55 11° 240° (WSW) 3,799 10.4 24.2°
Drops below altitude 10° 12:42:19 10° 226° (SW) 3,869 10.9 24.1°
Sets 12:48:52 0° 194° (SSW) 4,801 11.5 23.7°
